Canadian, TX

12:49 PM CDT on August 31, 2016 (GMT -0500)
Hemphill County

Weather History for KHHF - July, 2013

Change the Weather History Date:

Tuesday, July 2, 2013

  Actual Average (KPPA) Record (KPPA)
Temperature  
Mean Temperature 67 °F -  
Max Temperature 84 °F 91 °F 108 °F (1980)
Min Temperature 50 °F 66 °F 52 °F (2013)
Cooling Degree Days 2    
Growing Degree Days 17 (Base 50)    
Moisture  
Dew Point 43 °F    
Average Humidity 45    
Maximum Humidity 86    
Minimum Humidity 17    
Precipitation  
Precipitation 0.00 in - - ()
Sea Level Pressure  
Sea Level Pressure 30.17 in    
Wind  
Wind Speed 2 mph (ENE)    
Max Wind Speed 16 mph    
Max Gust Speed 21 mph    
Visibility 9 miles    
Events      
Averages and records for this station are not official NWS values.
T = Trace of Precipitation, MM = Missing Value Source: NWS Daily Summary

Daily Weather History Graph

Daily Weather History Graph

Search for Another Location

Airport or City:

Trip Planner

Search our weather history database for the weather conditions in past years. The results will help you decide how hot, cold, wet, or windy it might be!

Date:

Astronomy

Jul. 02, 2013 Rise Set
Actual Time 6:29 AM CDT 9:01 PM CDT
Civil Twilight 5:59 AM CDT 9:31 PM CDT
Nautical Twilight 5:22 AM CDT 10:09 PM CDT
Astronomical Twilight 4:40 AM CDT 10:50 PM CDT
Moon 2:27 AM CDT (7/2) 4:21 PM CDT (7/2)
Length of Visible Light 15h 32m
Length of Day
14h 32m
Waning Crescent, 26% of the Moon is Illuminated
Jul 2
Waning Crescent
Jul 8
New
Jul 15
First Quarter
Jul 22
Full
Jul 29
Last Quarter

Hourly Weather History & Observations

Time (CDT) Temp. Dew Point Humidity Pressure Visibility Wind Dir Wind Speed Gust Speed Precip Events Conditions
12:15 AM 62.6 °F 47.3 °F 57% 30.19 in 10.0 mi Calm Calm - N/A   Clear
12:35 AM 61.2 °F 46.0 °F 58% 30.19 in 10.0 mi Calm Calm - N/A   Clear
12:55 AM 61.2 °F 45.9 °F 57% 30.19 in 10.0 mi Calm Calm - N/A   Clear
1:15 AM 59.9 °F 45.9 °F 60% 30.19 in 10.0 mi SW 3.5 mph - N/A   Clear
1:35 AM 57.4 °F 45.9 °F 65% 30.20 in 10.0 mi SW 3.5 mph - N/A   Clear
1:55 AM 55.4 °F 45.5 °F 69% 30.19 in 10.0 mi Calm Calm - N/A   Clear
2:15 AM 55.6 °F 45.5 °F 69% 30.19 in 10.0 mi Calm Calm - N/A   Clear
2:35 AM 56.8 °F 46.0 °F 67% 30.19 in 10.0 mi Calm Calm - N/A   Clear
2:55 AM 55.6 °F 46.0 °F 70% 30.19 in 10.0 mi Calm Calm - N/A   Clear
3:15 AM 56.3 °F 46.2 °F 69% 30.19 in 10.0 mi Calm Calm - N/A   Clear
3:35 AM 54.9 °F 45.7 °F 71% 30.19 in 10.0 mi Calm Calm - N/A   Clear
3:55 AM 53.6 °F 45.0 °F 73% 30.19 in 7.0 mi Calm Calm - N/A   Clear
4:15 AM 53.1 °F 45.0 °F 74% 30.19 in 7.0 mi Calm Calm - N/A   Clear
4:35 AM 53.4 °F 45.1 °F 74% 30.19 in 7.0 mi Calm Calm - N/A   Clear
4:55 AM 52.0 °F 45.0 °F 77% 30.19 in 7.0 mi Calm Calm - N/A   Clear
5:15 AM 51.8 °F 44.8 °F 77% 30.20 in 7.0 mi Calm Calm - N/A   Clear
5:35 AM 51.4 °F 45.0 °F 79% 30.20 in 7.0 mi Calm Calm - N/A   Clear
5:55 AM 52.5 °F 45.0 °F 75% 30.20 in 7.0 mi Calm Calm - N/A   Clear
6:15 AM 52.3 °F 44.8 °F 75% 30.20 in 7.0 mi Calm Calm - N/A   Clear
6:35 AM 50.0 °F 44.6 °F 82% 30.21 in 7.0 mi Calm Calm - N/A   Clear
6:55 AM 50.9 °F 46.0 °F 83% 30.21 in 7.0 mi Calm Calm - N/A   Clear
7:15 AM 51.8 °F 47.7 °F 86% 30.22 in 7.0 mi Calm Calm - N/A   Clear
7:35 AM 53.4 °F 48.4 °F 83% 30.22 in 7.0 mi Calm Calm - N/A   Clear
7:55 AM 55.2 °F 48.9 °F 79% 30.22 in 7.0 mi Calm Calm - N/A   Clear
8:15 AM 57.7 °F 48.6 °F 71% 30.22 in 7.0 mi Calm Calm - N/A   Clear
8:35 AM 59.9 °F 49.3 °F 68% 30.23 in 7.0 mi Calm Calm - N/A   Clear
8:55 AM 62.6 °F 49.8 °F 63% 30.23 in 7.0 mi Calm Calm - N/A   Clear
9:15 AM 64.6 °F 50.0 °F 59% 30.23 in 7.0 mi Calm Calm - N/A   Clear
9:35 AM 67.8 °F 48.6 °F 50% 30.23 in 7.0 mi Calm Calm - N/A   Clear
9:55 AM 69.8 °F 47.5 °F 45% 30.23 in 10.0 mi Calm Calm - N/A   Clear
10:15 AM 71.2 °F 48.6 °F 45% 30.22 in 7.0 mi Calm Calm - N/A   Clear
10:35 AM 73.6 °F 48.2 °F 41% 30.22 in 10.0 mi Calm Calm - N/A   Clear
10:55 AM 75.2 °F 45.3 °F 34% 30.22 in 10.0 mi Calm Calm - N/A   Clear
11:15 AM 76.3 °F 42.3 °F 30% 30.21 in 10.0 mi East 3.5 mph - N/A   Clear
11:35 AM 77.5 °F 40.5 °F 26% 30.21 in 10.0 mi East 5.8 mph - N/A   Clear
11:55 AM 77.7 °F 43.3 °F 29% 30.21 in 10.0 mi NE 4.6 mph - N/A   Clear
12:15 PM 79.7 °F 40.6 °F 25% 30.20 in 10.0 mi North 6.9 mph - N/A   Clear
12:35 PM 80.2 °F 40.3 °F 24% 30.20 in 10.0 mi North 11.5 mph 17.3 mph N/A   Clear
12:55 PM 80.8 °F 40.1 °F 23% 30.19 in 10.0 mi NNE 3.5 mph 16.1 mph N/A   Clear
1:35 PM 82.0 °F 40.5 °F 23% 30.18 in 10.0 mi North 9.2 mph 18.4 mph N/A   Clear
1:55 PM 81.9 °F 41.0 °F 23% 30.18 in 10.0 mi East 5.8 mph 20.7 mph N/A   Scattered Clouds
2:15 PM 81.9 °F 41.4 °F 24% 30.17 in 10.0 mi NNE 4.6 mph 17.3 mph N/A   Clear
2:35 PM 82.8 °F 39.0 °F 21% 30.16 in 10.0 mi North 16.1 mph 20.7 mph N/A   Clear
3:15 PM 82.6 °F 39.9 °F 22% 30.15 in 10.0 mi ENE 3.5 mph - N/A   Clear
3:35 PM 82.4 °F 39.7 °F 22% 30.14 in 10.0 mi ENE 5.8 mph 17.3 mph N/A   Clear
3:55 PM 83.7 °F 38.8 °F 20% 30.13 in 10.0 mi NE 8.1 mph 17.3 mph N/A   Clear
4:15 PM 83.8 °F 39.0 °F 20% 30.13 in 10.0 mi ESE 9.2 mph - N/A   Clear
4:55 PM 83.5 °F 37.8 °F 20% 30.12 in 10.0 mi East 5.8 mph - N/A   Clear
5:15 PM 83.7 °F 36.1 °F 18% 30.11 in 10.0 mi ENE 9.2 mph - N/A   Clear
5:35 PM 84.0 °F 35.6 °F 18% 30.11 in 10.0 mi ENE 10.4 mph - N/A   Clear
5:55 PM 83.8 °F 36.0 °F 18% 30.10 in 10.0 mi North 3.5 mph - N/A   Clear
6:15 PM 83.5 °F 35.6 °F 18% 30.10 in 10.0 mi ENE 9.2 mph - N/A   Clear
6:35 PM 83.5 °F 35.6 °F 18% 30.09 in 10.0 mi Calm Calm - N/A   Clear
6:55 PM 82.8 °F 34.2 °F 17% 30.09 in 10.0 mi ENE 5.8 mph - N/A   Clear
7:15 PM 83.1 °F 33.4 °F 17% 30.09 in 10.0 mi East 8.1 mph - N/A   Clear
7:35 PM 82.6 °F 37.4 °F 20% 30.09 in 10.0 mi East 9.2 mph - N/A   Clear
7:55 PM 81.9 °F 38.8 °F 22% 30.09 in 10.0 mi East 8.1 mph - N/A   Clear
8:15 PM 81.1 °F 37.8 °F 21% 30.09 in 10.0 mi East 5.8 mph - N/A   Clear
8:35 PM 79.7 °F 39.2 °F 23% 30.10 in 10.0 mi East 6.9 mph - N/A   Clear
8:55 PM 77.5 °F 40.3 °F 26% 30.10 in 10.0 mi East 6.9 mph - N/A   Clear
9:15 PM 75.2 °F 41.2 °F 29% 30.10 in 10.0 mi East 5.8 mph - N/A   Clear
9:35 PM 73.4 °F 41.5 °F 32% 30.10 in 10.0 mi East 5.8 mph - N/A   Clear
9:55 PM 73.2 °F 41.9 °F 32% 30.11 in 10.0 mi East 4.6 mph - N/A   Clear
10:15 PM 71.6 °F 42.8 °F 35% 30.11 in 10.0 mi SE 4.6 mph - N/A   Clear
10:35 PM 70.0 °F 42.3 °F 37% 30.12 in 10.0 mi ESE 5.8 mph - N/A   Clear
10:55 PM 70.3 °F 41.7 °F 35% 30.12 in 10.0 mi ESE 5.8 mph - N/A   Clear
11:15 PM 69.1 °F 41.4 °F 37% 30.13 in 10.0 mi ESE 3.5 mph - N/A   Scattered Clouds
11:35 PM 67.6 °F 41.9 °F 39% 30.13 in 10.0 mi SE 3.5 mph - N/A   Overcast
11:55 PM 71.2 °F 40.6 °F 33% 30.13 in 10.0 mi SE 5.8 mph - N/A   Mostly Cloudy